User: anonymous
Location: Unspecified
(0.0000°N, 0.0000°E)
Time: 01:55:21
(UTC+00:00)
Language:

PAKSAT 1R - Orbit

View from above orbital plane
View from above orbital plane
View from above satellite
View from above satellite

Ground track
Ground track

The orbit data is extracted from the following two-line orbital elements,

1 37779U 11042A   14258.95366252  .00000126  00000-0  00000+0 0  6477
2 37779 000.0448 318.4353 0003839 218.2498 199.4370 01.00274505 11385
Epoch (UTC): 15 September 2014 22:53:16
Eccentricity: 0.0003839
inclination: 0.0448°
perigee height: 35769 km
apogee height: 35801 km
right ascension of ascending node: 318.4353°
argument of perigee: 218.2498°
revolutions per day: 1.00274505
mean anomaly at epoch: 199.4370°
orbit number at epoch: 1138

The dashed part of the orbit path shows where the satellite is in the earth's shadow,  

DLR